Terminal Aerodrome Forecast
Issued by NWS Des Moines, IA

Home | Current Version | Previous Version | Text Only | Print | Product List | Glossary On
Versions: 1 2 3 4 5 6 7 8 9 10 11 12 13 14 15 16 17 18 19 20 21 22 23 24 25 26 27 28 29 30 31 32 33 34 35 36
000
FTUS43 KDMX 212331
TAFALO
TAF
KALO 212331Z 2200/2224 18010KT P6SM SKC
     FM220500 19008KT P6SM SKC WS020/23035KT
     FM221300 22009KT P6SM FEW200
     FM221900 25013G20KT P6SM FEW200=

USA.gov is the U.S. government's official web portal to all federal, state and local government web resources and services.